map of UDI home
UDI - Airport
Location
City:  Uberlândia, Minas Gerais, Brazil
Name:Ten. Cel. Av. César Bombonato Airport
ICAO:SBUL
IATA:UDI

Details
Type:Airport (Aerodrome, Airfield)
Use:Public/Civil
Latitude:18°52'58"S (-18.882843)
Longitude:48°13'32"W (-48.225593)
Datum:WGS 1984
Elevation:3094 ft (943 m)
Variation:21.15°W (WMM2015 magnetic declination)
-0.12° annual change
Runways:1
Longest:6398 × 148 ft (1950 × 45 m), paved

Time
Time Zone:UTC-3 (DST-2)
Local Time:

Weather
METAR:SBUL 161100Z 04012KT 9999 SCT005 20/18 Q1016
TAF:SBUL 160100Z 1606/1618 04005KT 9999 FEW020 TN20/1606Z TX26/1615Z PROB30 1606/1612 BKN005
BECMG 1612/1614 35010KT SCT020 PROB40 1616/1618 TSRA BKN020 FEW040CB
RMK PHH

Related Locations
Nearby:
Farthest:MMD: 11950 mi / 19231 km
Minamidaito [Minami Daito Airport], Minamidaito Jima, 47, JP

Find:

   beyond  
but within

Other Information
Maps:
NOTAMs:
Links:
Sources:

  
flag of Brazil
flag of Minas Gerais
  

Sectional Chart

Flight Planning
at skyvector.com

Satellite Image

Google Maps Satellite view

 

Copyright © 2004-2017 Karl L. Swartz. All rights reserved.
The Great Circle Mapper name and logo are trademarks of the Great Circle Mapper.
All other trademarks mentioned herein belong to their respective owners.
Please see credits for attibutions and further copyright information.

  Follow gcmap on Facebook Follow gcmap on Twitter Follow gcmap on Google+ GCmap on LinkedIn

hCard Microformat

Geo Microformat